{"data":{"norad_id":48667,"intl_designator":"2021-044AF","name":"STARLINK-2735","alt_names":[],"object_type":"PAYLOAD","status":"ACTIVE","operator":null,"country":"US","launch_date":"2021-05-26","launch_site_code":"AFETR","launch_vehicle":null,"mission":null,"orbit_class":"UNKNOWN","rcs_meters":null,"size_class":null,"mass_kg":null,"dimensions":null,"purposes":["comms"],"wikipedia_slug":null,"has_3d_model":false,"image_url":null,"decayed_at":null,"tle_current":{"epoch":"2026-09-19T16:51:25.015968Z","epoch_age_seconds":106201,"freshness":"FRESH","line1":"1 48667U 21044AF  26262.70237287  .00000184  00000+0  17697-4 0  9992","line2":"2 48667  53.1602 292.5183 0001335  77.0639 283.0511 15.31700311293527","mean_motion":15.31700311,"eccentricity":0.0001335,"inclination_deg":53.1602,"raan_deg":292.5183,"arg_perigee_deg":77.0639,"mean_anomaly_deg":283.0511,"bstar":1.7697e-5,"rev_number":29352,"period_min":94.013168872432,"perigee_km":469.82474319589,"apogee_km":471.65339310609,"semimajor_km":6848.876068151,"source":"CELESTRAK","updated_at":"2026-09-20T09:00:39.240579Z"}}}